Indianapolis, IN

7:26 AM EST on January 16, 2018 (GMT -0500)
Indianapolis International

Weather History for KIND - July, 2013

Change the Weather History Date:

Monday, July 1, 2013

  Actual Average Record
Temperature  
Mean Temperature 69 °F 75 °F  
Max Temperature 72 °F 85 °F 97 °F (1970)
Min Temperature 65 °F 66 °F 48 °F (1885)
Degree Days  
Heating Degree Days 0 0  
Month to date heating degree days 0 0  
Since 1 June heating degree days 9 16  
Since 1 July heating degree days 0 0  
Cooling Degree Days 4 10  
Month to date cooling degree days 4 10  
Year to date cooling degree days 359 320  
Since 1 June cooling degree days 230 236  
Growing Degree Days 18 (Base 50)    
Moisture  
Dew Point 61 °F    
Average Humidity 80    
Maximum Humidity 87    
Minimum Humidity 73    
Precipitation  
Precipitation 0.46 in 0.16 in 5.09 in (1987)
Month to date precipitation 0.46 0.16  
Year to date precipitation 25.95 21.81  
Snow  
Snow 0.00 in 0.00 in 0.00 in ()
Month to date snowfall 0.0 0.0  
Since 1 June snowfall 0.0 0.0  
Since 1 July snowfall 0.0 0.0  
Snow Depth 0.00 in    
Sea Level Pressure  
Sea Level Pressure 29.89 in    
Wind  
Wind Speed 12 mph (NE)    
Max Wind Speed 18 mph    
Max Gust Speed 23 mph    
Visibility 9 miles    
Events Rain , Thunderstorm    
T = Trace of Precipitation, MM = Missing Value Source: NWS Daily Summary

Daily Weather History Graph

Daily Weather History Graph

Search for Another Location

Airport or City:

Trip Planner

Search our weather history database for the weather conditions in past years. The results will help you decide how hot, cold, wet, or windy it might be!

Date:

Astronomy

Jul. 01, 2013 Rise Set
Actual Time 6:21 AM EDT 9:16 PM EDT
Civil Twilight 5:48 AM EDT 9:49 PM EDT
Nautical Twilight 5:07 AM EDT 10:30 PM EDT
Astronomical Twilight 4:19 AM EDT 11:17 PM EDT
Moon 1:50 AM EDT (7/1) 3:32 PM EDT (7/1)
Length of Visible Light 16h 00m
Length of Day
14h 55m
Waning Crescent, 35% of the Moon is Illuminated
Jul 1
Waning Crescent
Jul 8
New
Jul 15
First Quarter
Jul 22
Full
Jul 29
Last Quarter

Hourly Weather History & Observations

Time (EDT) Temp. Dew Point Humidity Pressure Visibility Wind Dir Wind Speed Gust Speed Precip Events Conditions
12:54 AM 66.0 °F 61.0 °F 84% 29.85 in 10.0 mi NNE 10.4 mph - N/A   Overcast
1:54 AM 66.0 °F 60.1 °F 81% 29.85 in 10.0 mi NNE 9.2 mph - N/A   Overcast
2:54 AM 66.0 °F 60.1 °F 81% 29.84 in 10.0 mi NNE 10.4 mph - N/A   Overcast
3:54 AM 66.0 °F 60.1 °F 81% 29.84 in 10.0 mi NNE 11.5 mph - N/A   Overcast
4:54 AM 66.0 °F 61.0 °F 84% 29.86 in 10.0 mi NNE 10.4 mph - 0.00 in Rain Light Rain
5:54 AM 66.0 °F 59.0 °F 78% 29.86 in 10.0 mi NE 15.0 mph - 0.00 in Rain Light Rain
6:54 AM 64.9 °F 60.1 °F 84% 29.86 in 10.0 mi NNE 15.0 mph - 0.00 in   Overcast
7:54 AM 66.0 °F 59.0 °F 78% 29.87 in 10.0 mi NE 10.4 mph - N/A   Overcast
8:54 AM 68.0 °F 59.0 °F 73% 29.88 in 10.0 mi NE 11.5 mph - N/A   Mostly Cloudy
9:54 AM 69.1 °F 60.1 °F 73% 29.89 in 10.0 mi NE 15.0 mph - N/A   Overcast
10:54 AM 70.0 °F 60.1 °F 71% 29.89 in 10.0 mi NNE 12.7 mph - N/A   Overcast
11:40 AM 68.0 °F 60.8 °F 78% 29.90 in 5.0 mi ENE 12.7 mph - 0.01 in Rain , Thunderstorm Light Thunderstorms and Rain
11:54 AM 66.0 °F 61.0 °F 84% 29.90 in 2.0 mi NE 11.5 mph - 0.25 in Rain , Thunderstorm Heavy Thunderstorms and Rain
12:08 PM 66.2 °F 62.6 °F 88% 29.91 in 5.0 mi NE 10.4 mph - 0.13 in Rain Light Rain
12:54 PM 71.1 °F 62.1 °F 73% 29.90 in 10.0 mi NE 16.1 mph - 0.13 in   Overcast
1:34 PM 69.8 °F 62.6 °F 78% 29.91 in 7.0 mi NE 10.4 mph 19.6 mph 0.00 in Rain Light Rain
1:54 PM 68.0 °F 63.0 °F 84% 29.90 in 5.0 mi NE 11.5 mph - 0.04 in Rain Rain
2:40 PM 71.6 °F 64.4 °F 78% 29.90 in 10.0 mi NE 12.7 mph - 0.02 in   Mostly Cloudy
2:54 PM 70.0 °F 64.0 °F 81% 29.89 in 10.0 mi NE 11.5 mph - 0.02 in   Overcast
3:51 PM 68.0 °F 64.4 °F 88% 29.91 in 10.0 mi NNE 10.4 mph - 0.01 in   Overcast
3:54 PM 68.0 °F 64.0 °F 87% 29.90 in 10.0 mi NNE 11.5 mph - 0.01 in   Overcast
4:50 PM 69.8 °F 64.4 °F 83% 29.91 in 10.0 mi NNE 8.1 mph - N/A   Overcast
4:54 PM 70.0 °F 64.0 °F 81% 29.90 in 10.0 mi NNE 9.2 mph - N/A   Overcast
5:41 PM 68.0 °F 62.6 °F 83% 29.91 in 7.0 mi NNE 15.0 mph - 0.00 in Rain Light Rain
5:54 PM 68.0 °F 63.0 °F 84% 29.90 in 6.0 mi NNE 15.0 mph - 0.01 in Rain Light Rain
6:54 PM 66.0 °F 62.1 °F 87% 29.90 in 8.0 mi NNE 15.0 mph - 0.00 in Rain Light Rain
7:54 PM 66.0 °F 61.0 °F 84% 29.90 in 6.0 mi NNE 15.0 mph - 0.00 in   Haze
8:54 PM 66.9 °F 61.0 °F 81% 29.92 in 8.0 mi NE 11.5 mph - N/A   Overcast
9:46 PM 66.2 °F 60.8 °F 83% 29.93 in 10.0 mi NE 12.7 mph - N/A   Overcast
9:54 PM 66.9 °F 61.0 °F 81% 29.92 in 10.0 mi NE 11.5 mph - N/A   Overcast
10:54 PM 66.9 °F 60.1 °F 79% 29.92 in 9.0 mi ENE 16.1 mph - N/A   Overcast
11:54 PM 66.9 °F 60.1 °F 79% 29.94 in 10.0 mi ENE 10.4 mph - N/A   Overcast